THORAD DELTA 1 DEB, 8407

Orbit data source: Space-Track

THORAD DELTA 1 DEB, 8407 is space debris in SSO originally from a launch on Fri, 15 Nov 1974 UTC launched from the Air Force Western Test Range (AFWTR). Debris objects in space refer to the collection of defunct objects orbiting the Earth. Examples of debris include non-operational satellites, rocket bodies, and fragments generated from explosions, collisions, or faulty payload assembly.

Loading next visibility...
Identifier
8407, 1974-089CK
Orbit
SSO
Country
Flag of USUS
Related business
Manufacturer
Unknown
Mission
Spacecraft
Bus & Motor
Unknown
Mass
Unknown
Launch date (UTC)
1974-11-15 (52 years ago)
Launch vehicle
Unknown
Launch site
Air Force Western Test Range (AFWTR)
Object type
Payload
Rocket body
Debris
Shape & HBR
Unknown shape, 0.1 m
Radar Cross Section
Medium (>0.1 m² and <1 m²)

Expand to show TLE details & history
Last TLE update: 8 hours ago

TLE from 8 hours ago
0 THORAD DELTA 1 DEB
1 08407U 74089CK  26207.45356939  .00000169  00000-0  10057-2 0  9999
2 08407 101.5952 191.1167 0231624  71.3298  77.9620 12.67125773390350
Epoch: 2026-07-26T10:53Z
TLE epoch observation values (Epoch: 2026-07-26T10:53:08.395Z)
Latitude
27.51499°
Longitude
-90.21469°
Altitude
1,363.239 km
Speed
7.195 km/s
True Right ascension
01h 08m 53s
True Declination
27° 23' 07"
Sunlit
Object was in daylight at epoch
Visualization orbit readout
Latitude
Unknown
Longitude
Unknown
Altitude
Unknown
Speed
Unknown
Apparent Right ascension
Unknown
Apparent Declination
Unknown
Sunlit
N/A
Visualization observer readout
Local Sidereal Time
08:14:19
Azimuth
Unknown
Elevation
Unknown
Doppler factor
Unknown
Orbital elements
Apogee altitude
1,571.14 km
Perigee altitude
1,211.228 km
Semi-major axis
7,769.321 km
Eccentricity
0.02316
Inclination
101.5952°
RAAN
191.1167°
Arg. of periapsis
71.3298°
True anomaly
80.57271°
Mean anomaly
77.962°
Eccentric anomaly
79.26589°
Mean motion
3.16934 °/min
Orbital period
113.59 mins
BSTAR
0.0010057
Loading maneuver chart data...
Computing Atmospheric mass density...

Documentation

Showing up to 5 results
|